Regional Weather Roundup
Issued by NWS

Home | Current Version | Previous Version | Text Only | Print | Product List | Glossary On
Versions: 1 2 3 4 5 6 7 8 9 10 11 12 13 14 15 16 17 18 19 20 21 22 23 24 25 26 27 28 29 30 31 32 33 34 35 36 37 38 39 40 41 42 43 44 45 46 47 48 49 50
000
ASUS43 KFSD 230110
RWRSD

WEATHER ROUNDUP FOR SOUTH DAKOTA
NATIONAL WEATHER SERVICE SIOUX FALLS SD
800 PM CDT SAT JUL 22 2017

NOTE: "FAIR" INDICATES FEW OR NO CLOUDS BELOW 12,000 FEET WITH NO
SIGNIFICANT WEATHER AND/OR OBSTRUCTIONS TO VISIBILITY.


SDZ001>005-009-010-012>017-230200-
NORTHWEST AND NORTH CENTRAL SOUTH DAKOTA

CITY           SKY/WX    TMP DP  RH WIND       PRES   REMARKS
BUFFALO          N/A     85  42  22 N13G22    29.99R
FAITH            N/A     87  39  18 NW13      30.00S
MOBRIDGE       SUNNY     85  52  32 N12       29.92R
$$

SDZ012>016-024>037-041>051-057-063-072>074-230200-
SOUTHWEST AND SOUTH CENTRAL SOUTH DAKOTA

CITY           SKY/WX    TMP DP  RH WIND       PRES   REMARKS
RAPID CTY ARPT SUNNY     88  40  18 NE9       30.04S
PIERRE         SUNNY     91  41  17 N10       29.91S
CUSTER         CLOUDY    78  36  21 E15       30.21S
PHILIP         SUNNY     93  37  14 N10       29.94S
PINE RIDGE     SUNNY     85  53  33 E5        30.03F
SPEARFISH      LGT RAIN  86  36  16 N10       30.10S
WINNER         FAIR      94  51  23 W3        29.93S
$$

SDZ004>011-016>023-039-040-230200-
NORTHEAST SOUTH DAKOTA

CITY           SKY/WX    TMP DP  RH WIND       PRES   REMARKS
ABERDEEN       SUNNY     86  52  30 NW13      29.87S
WATERTOWN      CLEAR     81  58  45 W7        29.89F
BROOKINGS      CLEAR     82  66  58 W3        29.91F
SISSETON         N/A     84  64  50 CALM      29.83F
$$

SDZ017-020-022-023-036>040-048>070-230200-
SOUTHEAST SOUTH DAKOTA

CITY           SKY/WX    TMP DP  RH WIND       PRES   REMARKS
SIOUX FALLS    PTCLDY    83  68  60 NW5       29.90S
HURON          SUNNY     86  63  45 CALM      29.89S
CHAMBERLAIN    MOSUNNY   93  48  21 N7        29.92R
MITCHELL       SUNNY     85  66  53 N5        29.90S
YANKTON        CLEAR     85  70  60 CALM      29.91F
$$

ABBREVIATIONS USED IN REMARKS
   TC - TEMPERATURE IN CELSIUS
  WCI - WIND CHILL INDEX
   HX - HEAT INDEX
  VSB - VISIBILITY





USA.gov is the U.S. government's official web portal to all federal, state and local government web resources and services.